This is the latest recevied weather packets stored in our database for station/object LEAS. If no packets are shown the sender has not sent any weather packets the latest 10 day(s).
| Time | Temp. | Humidity | Pressure | Rain* | Wind** | Luminosity | Snow |
|---|---|---|---|---|---|---|---|
| 1787776203 | 17.22° C | 77% | 1009 hPa | - | - | - | - |
| 1787775304 | 17.22° C | 77% | 1009 hPa | - | - | - | - |
| 1787772604 | 20° C | 82% | 1007 hPa | - | - | - | - |
| 1787771703 | 20° C | 82% | 1007 hPa | - | - | - | - |
| 1787770804 | 21.11° C | 77% | 1006 hPa | - | - | - | - |
| 1787769004 | 21.11° C | 77% | 1007 hPa | - | - | - | - |
| 1787768103 | 21.11° C | 77% | 1007 hPa | - | - | - | - |
| 1787767203 | 22.22° C | 78% | 1007 hPa | - | - | - | - |
| 1787762704 | 20° C | 88% | 1006 hPa | - | - | - | - |
| 1787760903 | 22.22° C | 68% | 1006 hPa | - | - | - | - |
| 1787760004 | 22.78° C | 56% | 1006 hPa | - | - | - | - |
| 1787756403 | 21.11° C | 88% | 1006 hPa | - | - | - | - |
| 1787753703 | 20° C | 93% | 1007 hPa | - | - | - | - |
| 1787750104 | 20° C | 77% | 1006 hPa | - | - | - | - |
| 1787749203 | 20° C | 77% | 1006 hPa | - | - | - | - |
| 1787748304 | 20° C | 77% | 1006 hPa | - | - | - | - |
| 1787747404 | 20° C | 82% | 1007 hPa | - | - | - | - |
| 1787745607 | 22.22° C | 73% | 1007 hPa | - | - | - | - |
| 1787743804 | 22.78° C | 78% | 1007 hPa | - | - | - | - |
| 1787742903 | 22.78° C | 78% | 1007 hPa | - | - | - | - |
| 1787742003 | 21.11° C | 82% | 1007 hPa | - | - | - | - |
| 1787740203 | 22.22° C | 78% | 1008 hPa | - | - | - | - |
| 1787739307 | 22.22° C | 78% | 1008 hPa | - | - | - | - |
| 1787738405 | 21.11° C | 77% | 1008 hPa | - | - | - | - |
| 1787737503 | 21.11° C | 77% | 1008 hPa | - | - | - | - |
* Rain since midnight (hover to see other rain measurements)
** Current wind speed in m/s (hover to see current wind gust speed)